[[{"header":{"parameterUnit":"m.s-1","parameterCategory":1,"la1":30.2991,"la2":30.254,"lo1":-89.0895,"lo2":-89.0444,"dy":0.0017,"dx":0.0017,"nx":28,"ny":28,"refTime":"2024-05-27T03:00:00:Z","depth":0,"parameterNumber":2,"parameterNumberName":"U-component_of_WINDS"},"data":[0,0,0,0,0,0,0,0,0,0,0,0,0,0,0,0,0,0,0,0,0,0,0,0,0,0,0,0,0,0,0,0,0,0,0,0,0,0,0,0,0,0,0,0,0,0,0,0,0,0,0,0,0,0,0,0,0,0,1.3782,1.3782,0,1.3772,1.3772,1.3772,1.3743,1.3743,1.3742,1.3741,1.3731,1.3731,1.3732,0,0,0,0,0,0,0,0,0,0,0,0,0,1.3775,1.3776,1.3782,1.3782,1.3782,1.3772,1.3772,1.3772,1.3743,1.3743,1.3742,1.3741,1.3731,1.3731,1.3732,0,0,0,0,0,0,0,0,0,0,0,0,0,1.3773,1.3776,1.3782,1.3766,1.3765,1.3772,1.3772,1.3772,1.3744,1.3743,1.3742,1.3741,1.3731,1.3731,1.3732,1.3753,0,0,1.3733,1.3733,0,0,0,0,0,0,0,0,1.3773,1.3773,1.3769,1.3768,1.3766,1.3758,1.3766,1.3765,1.3744,1.3752,1.3741,1.374,1.3741,1.374,1.3741,1.3753,1.3752,1.3733,1.3734,1.3734,1.3734,0,0,0,0,0,0,0,1.3773,1.3774,1.3778,1.3769,1.3767,1.3759,1.3758,1.3765,1.3752,1.3751,1.3749,1.3748,1.374,1.374,1.374,1.3752,1.3733,1.3734,1.3734,1.3734,1.3779,1.3779,0,0,0,0,0,0,1.3776,1.3774,1.3778,1.3778,1.3767,1.376,1.3759,1.3761,1.3751,1.3749,1.3749,1.3747,1.374,1.374,1.374,1.3762,1.3734,1.3734,1.3734,1.3778,1.3779,1.378,0,0,0,0,0,0,1.3776,1.3777,1.3779,1.3775,1.3775,1.3761,1.3765,1.3762,1.3762,1.375,1.3747,1.3752,1.3739,1.3739,1.3749,1.3761,1.3734,1.3735,1.3777,1.3778,1.3779,1.3808,0,0,0,0,0,0,1.3776,1.3777,1.3785,1.3776,1.3775,1.3789,1.3765,1.3762,1.3763,1.376,1.3752,1.375,1.3738,1.3749,1.375,1.3761,1.3735,1.3775,1.3777,1.3779,1.3806,1.381,1.3814,0,0,0,0,0,1.3776,1.3794,1.3786,1.3786,1.3785,1.379,1.379,1.3776,1.3764,1.3772,1.3764,1.375,1.376,1.375,1.3751,1.3763,1.3775,1.3777,1.3779,1.3804,1.381,1.3814,0,0,0,0,0,0,1.3806,1.3793,1.3783,1.3799,1.3796,1.3785,1.3795,1.3783,1.3783,1.378,1.3764,1.3762,1.3774,1.377,1.3759,1.3782,1.3765,1.3767,1.3784,1.3789,1.3793,1.3793,1.3735,0,0,0,0,0,1.3814,1.3819,1.3808,1.3823,1.3822,1.3809,1.381,1.38,1.3796,1.3794,1.3787,1.3783,1.3785,1.3787,1.3789,1.3806,1.3802,1.3814,1.3818,1.3821,1.3823,1.383,1.3834,1.3786,1.3786,1.3786,0,0,1.3832,1.3826,1.383,1.3829,1.3825,1.383,1.3808,1.3814,1.3817,1.3795,1.3804,1.3798,1.3793,1.3806,1.3812,1.3803,1.3836,1.3824,1.3827,1.3827,1.3832,1.3837,1.3841,1.3788,1.3788,1.3787,0,0,1.3866,1.3863,1.3874,1.387,1.3864,1.3855,1.3858,1.3849,1.3844,1.3853,1.3836,1.3839,1.3844,1.384,1.3838,1.387,1.3856,1.3871,1.3891,1.3898,1.3901,1.3905,1.3914,1.3918,1.3873,1.3873,1.3873,0,1.3889,1.3896,1.3881,1.3888,1.3887,1.3867,1.3878,1.3875,1.387,1.387,1.386,1.3864,1.3859,1.387,1.3877,1.3878,1.3879,1.3871,1.3902,1.3905,1.3908,1.3917,1.392,1.3874,1.3874,1.3874,1.3874,0,1.3923,1.3928,1.3937,1.3932,1.3933,1.3942,1.3928,1.393,1.3919,1.3911,1.3919,1.3912,1.3911,1.3913,1.3904,1.3923,1.3917,1.3905,1.3887,1.3914,1.3922,1.3926,1.3877,1.3876,1.3876,1.3875,0,0,1.3976,1.3962,1.3965,1.3962,1.3953,1.3957,1.3964,1.3962,1.3964,1.3961,1.3965,1.3969,1.3957,1.3956,1.3945,1.3952,1.3974,1.3938,1.3938,1.3944,1.3992,1.4001,1.4005,1.3966,1.3966,1.3967,1.3992,0,1.4007,1.4019,1.4005,1.4019,1.4022,1.4002,1.4008,1.4003,1.3996,1.3997,1.3988,1.399,1.3976,1.3974,1.3979,1.397,1.3983,1.3969,1.3969,1.3969,1.3969,1.4009,1.4018,1.4042,1.3996,1.3996,1.3996,0,1.4045,1.4042,1.4057,1.4045,1.4046,1.4052,1.4048,1.405,1.4043,1.4037,1.4035,1.4022,1.4027,1.4011,1.4018,1.4008,1.4007,1.4003,1.4003,1.4002,1.3984,1.4007,1.405,1.4053,1.4001,1.4001,1.4001,0,1.408,1.4081,1.4088,1.4086,1.4074,1.4078,1.4073,1.4066,1.4065,1.4062,1.4061,1.4059,1.4057,1.4056,1.4042,1.4032,1.405,1.4033,1.4044,1.4044,1.4048,1.4047,1.4089,1.405,1.405,1.405,1.405,0,1.4115,1.4124,1.4104,1.4109,1.4118,1.4102,1.4111,1.4104,1.4097,1.4099,1.4083,1.4086,1.4068,1.4069,1.4059,1.4064,1.4064,1.4059,1.4056,1.4059,1.406,1.4058,1.4055,1.4051,1.405,1.405,1.405,0,1.4155,1.4142,1.4149,1.4137,1.4133,1.414,1.4129,1.4133,1.4123,1.4127,1.4126,1.4112,1.4112,1.4098,1.4096,1.4088,1.4098,1.4093,1.41,1.4098,1.4109,1.4107,1.415,1.4154,1.4113,1.4114,1.4114,0,1.4178,1.4184,1.4171,1.4172,1.4167,1.4168,1.4167,1.4151,1.415,1.4142,1.4146,1.4145,1.4142,1.4143,1.4132,1.4129,1.4122,1.4137,1.4122,1.4125,1.412,1.412,1.4119,1.414,1.4141,1.4141,1.4142,0,1.4219,1.4211,1.421,1.4206,1.4205,1.4202,1.4197,1.4198,1.4181,1.4181,1.418,1.4178,1.4174,1.4172,1.4167,1.4161,1.4148,1.4147,1.4149,1.4152,1.4155,1.4152,1.4107,1.4146,1.4145,1.4145,1.4145,1.4145,1.4249,1.4253,1.4244,1.4243,1.4238,1.4233,1.4235,1.4226,1.4225,1.422,1.4211,1.4211,1.4203,1.4195,1.419,1.4189,1.4182,1.4185,1.4186,1.4187,1.4188,1.4157,1.4189,1.4189,1.4189,1.4188,1.4188,0,1.4288,1.4281,1.428,1.4273,1.4272,1.4259,1.4253,1.4253,1.4253,1.4246,1.4244,1.4242,1.4239,1.4228,1.4224,1.4226,1.4219,1.4225,1.4224,1.4223,1.4196,1.4194,1.423,1.423,1.423,1.423,1.423,1.423,1.4307,1.4312,1.4304,1.4306,1.4299,1.4298,1.4295,1.4291,1.4285,1.4284,1.4281,1.4274,1.4265,1.426,1.4257,1.4253,1.4252,1.4259,1.4254,1.4229,1.4225,1.4221,1.4219,1.426,1.426,1.428,1.428,1.4281]},{"header":{"parameterUnit":"m.s-1","parameterCategory":1,"la1":30.2991,"la2":30.254,"lo1":-89.0895,"lo2":-89.0444,"dy":0.0017,"dx":0.0017,"nx":28,"ny":28,"refTime":"2024-05-27T03:00:00:Z","depth":0,"parameterNumber":3,"parameterNumberName":"V-component_of_WINDS"},"data":[0,0,0,0,0,0,0,0,0,0,0,0,0,0,0,0,0,0,0,0,0,0,0,0,0,0,0,0,0,0,0,0,0,0,0,0,0,0,0,0,0,0,0,0,0,0,0,0,0,0,0,0,0,0,0,0,0,0,6.1237,6.1237,0,6.1271,6.1271,6.1272,6.1216,6.1214,6.1212,6.121,6.1242,6.1244,6.1247,0,0,0,0,0,0,0,0,0,0,0,0,0,6.1118,6.1121,6.1237,6.1237,6.1238,6.1271,6.1271,6.1272,6.1216,6.1214,6.1212,6.1209,6.1241,6.1244,6.1247,0,0,0,0,0,0,0,0,0,0,0,0,0,6.1163,6.1122,6.1237,6.1214,6.1212,6.1271,6.1271,6.1272,6.1217,6.1214,6.1211,6.1208,6.124,6.1243,6.1247,6.1328,0,0,6.1259,6.1261,0,0,0,0,0,0,0,0,6.116,6.1167,6.1217,6.1216,6.1214,6.1236,6.1241,6.1291,6.1217,6.1215,6.121,6.1207,6.1242,6.1245,6.1258,6.133,6.1331,6.126,6.1262,6.1264,6.1265,0,0,0,0,0,0,0,6.1157,6.1165,6.125,6.1218,6.1216,6.12,6.1204,6.125,6.1244,6.1215,6.1211,6.1216,6.124,6.1254,6.1258,6.1331,6.1259,6.1263,6.1265,6.1267,6.1468,6.1471,0,0,0,0,0,0,6.1158,6.1163,6.1249,6.1251,6.118,6.1205,6.1208,6.1232,6.1243,6.1242,6.1218,6.1213,6.1249,6.1254,6.1259,6.1352,6.1264,6.1267,6.1269,6.1465,6.1468,6.1472,0,0,0,0,0,0,6.1155,6.1166,6.1248,6.1206,6.1215,6.121,6.1237,6.1234,6.1248,6.1246,6.1244,6.1234,6.1247,6.1254,6.1311,6.1353,6.1269,6.1272,6.1461,6.1466,6.147,6.1541,0,0,0,0,0,0,6.1152,6.1166,6.1198,6.1207,6.1218,6.1301,6.1239,6.1237,6.1255,6.1249,6.126,6.1259,6.1245,6.1305,6.1315,6.1357,6.1276,6.1457,6.1463,6.1469,6.1535,6.1547,6.1558,0,0,0,0,0,6.1148,6.1216,6.12,6.121,6.1258,6.1304,6.1309,6.1293,6.1259,6.129,6.1288,6.1259,6.1347,6.1312,6.1322,6.1365,6.1455,6.1462,6.1468,6.153,6.1545,6.1558,0,0,0,0,0,0,6.1211,6.1217,6.1199,6.1273,6.1288,6.1294,6.1333,6.131,6.1335,6.1328,6.1305,6.1308,6.1369,6.1373,6.1334,6.1443,6.1395,6.1404,6.1438,6.1453,6.1464,6.1461,6.1279,0,0,0,0,0,6.1234,6.1272,6.1274,6.1339,6.1347,6.1339,6.1358,6.1344,6.1359,6.1365,6.1367,6.1381,6.1412,6.1432,6.1461,6.1535,6.1535,6.157,6.1581,6.1591,6.1599,6.1636,6.165,6.1494,6.1494,6.1494,0,0,6.1281,6.1289,6.1314,6.1352,6.1362,6.1399,6.1345,6.1388,6.1414,6.1371,6.1425,6.1427,6.1441,6.1507,6.1536,6.1512,6.1642,6.16,6.1607,6.161,6.1644,6.1659,6.1672,6.1498,6.1497,6.1497,0,0,6.1385,6.1396,6.1449,6.1461,6.1477,6.147,6.1483,6.1492,6.1492,6.1546,6.1513,6.1544,6.1598,6.1609,6.1621,6.1727,6.17,6.1736,6.1797,6.1833,6.1845,6.1856,6.1892,6.1905,6.1744,6.1744,6.1745,0,6.1441,6.1498,6.148,6.1524,6.154,6.1503,6.1555,6.1567,6.1591,6.1602,6.1575,6.164,6.1647,6.1714,6.1739,6.1751,6.1763,6.1735,6.1845,6.1856,6.1866,6.1899,6.1913,6.1749,6.1748,6.1748,6.1747,0,6.1564,6.1604,6.1645,6.1669,6.169,6.1739,6.1726,6.1749,6.1732,6.1728,6.1782,6.1789,6.1816,6.1831,6.1816,6.1895,6.1879,6.1849,6.18,6.1885,6.1916,6.1929,6.1755,6.1753,6.1752,6.1751,0,0,6.171,6.1723,6.1738,6.1747,6.1761,6.1791,6.1836,6.1863,6.1882,6.19,6.1936,6.1981,6.1953,6.1967,6.1952,6.1984,6.2064,6.195,6.195,6.1969,6.2149,6.2171,6.2186,6.2047,6.2049,6.2051,6.2147,0,6.1812,6.1892,6.1875,6.1952,6.1987,6.195,6.1989,6.2001,6.1998,6.2025,6.2021,6.2052,6.2014,6.2022,6.2052,6.2048,6.21,6.2041,6.2078,6.208,6.2075,6.2203,6.2226,6.2317,6.216,6.2162,6.2163,0,6.1943,6.1964,6.2045,6.2051,6.2064,6.21,6.2122,6.215,6.2161,6.2156,6.2171,6.215,6.2192,6.2143,6.22,6.2161,6.2175,6.2175,6.2178,6.218,6.2126,6.2206,6.2345,6.2359,6.2182,6.2181,6.218,0,6.2038,6.2088,6.2142,6.2151,6.216,6.2185,6.219,6.2199,6.2215,6.2235,6.2245,6.2269,6.2282,6.23,6.2284,6.2251,6.2343,6.2294,6.2338,6.2339,6.2359,6.2358,6.2501,6.237,6.237,6.237,6.237,0,6.2153,6.2203,6.2185,6.2218,6.2271,6.2251,6.2305,6.2305,6.2313,6.2343,6.2313,6.2343,6.2321,6.2348,6.2336,6.2383,6.239,6.2386,6.2382,6.2388,6.2388,6.2396,6.2389,6.2373,6.2373,6.2372,6.2371,0,6.227,6.2259,6.2315,6.2318,6.232,6.236,6.2361,6.2391,6.2385,6.2424,6.2432,6.2422,6.2452,6.2438,6.2469,6.2461,6.2522,6.251,6.2519,6.2515,6.256,6.2555,6.2712,6.273,6.259,6.2591,6.2592,0,6.2343,6.2381,6.2387,6.2406,6.2413,6.2443,6.246,6.2441,6.2459,6.2473,6.2501,6.2528,6.2549,6.2598,6.2592,6.2616,6.2603,6.2656,6.2607,6.2611,6.2602,6.2599,6.2602,6.2666,6.2668,6.2669,6.267,0,6.2474,6.2466,6.2492,6.2515,6.2536,6.2553,6.2568,6.2584,6.2565,6.2587,6.2617,6.2633,6.2665,6.2691,6.2711,6.2714,6.2689,6.2686,6.2697,6.2703,6.2706,6.2703,6.2544,6.2682,6.2681,6.268,6.268,6.2679,6.257,6.26,6.2609,6.2638,6.2647,6.266,6.2687,6.2684,6.2709,6.2734,6.272,6.2755,6.2763,6.2787,6.2793,6.2819,6.2798,6.2815,6.2819,6.2823,6.2828,6.2703,6.2823,6.2822,6.2822,6.2822,6.2821,0,6.2697,6.2701,6.2727,6.2748,6.277,6.2745,6.2759,6.2778,6.2809,6.2819,6.284,6.2873,6.2898,6.2895,6.2917,6.2939,6.2927,6.2945,6.2943,6.2943,6.2846,6.2834,6.2954,6.2954,6.2954,6.2954,6.2954,6.2954,6.2766,6.2816,6.2809,6.2861,6.2864,6.2898,6.2908,6.2919,6.2927,6.2966,6.2987,6.2984,6.2988,6.301,6.3031,6.3029,6.3038,6.306,6.3054,6.2963,6.295,6.2938,6.2926,6.3063,6.3063,6.3148,6.3149,6.315]}]]